Date String (YYYY-MM-DD hh:mm:ss) UTC,Instrument flags,Ambient pressure (hPa),Sample flow (lpm),Bypass flow (lpm),Sample temperature (°C),Ambient temperature (°C),ASC tube jacket temperature (°C),LED temperature (°C),Box temperature (°C),Sample RH (%),Span deviation,Mass concentration (μg/m³),Mass concentration (μg/m³),Mass concentration (μg/m³)
DateTimeUTC,F1_M11,P_M11,Q1_M11,Q2_M11,T1_M11,T2_M11,T3_M11,T4_M11,T5_M11,U1_M11,ZSPAN_M11,X0_M11,X2_M11,X1_M11
2022-01-12 18:00:00,,0832.1,5.00,0.00,25.0,24.4,00.0,33.9,26.9,10.2,0000.0,0000.10,0000.02,0000.00
2022-01-12 18:01:00,,0832.1,4.99,0.00,25.1,24.4,00.0,33.9,26.9,10.5,0000.0,0000.43,0000.03,0000.00
2022-01-12 18:02:00,,0832.1,5.00,0.00,25.1,24.4,00.0,34.0,26.9,11.2,0000.0,0000.90,0000.04,0000.01
2022-01-12 18:03:00,,0832.1,5.02,0.00,25.1,24.4,00.0,34.0,26.9,11.4,0000.0,0000.86,0000.03,0000.00
2022-01-12 18:04:00,,0832.0,4.99,0.00,25.1,24.4,00.0,34.0,26.9,11.4,0000.0,0000.91,0000.02,0000.00
2022-01-12 18:05:00,,0832.1,5.00,0.00,25.1,24.4,00.0,34.0,26.9,11.4,0000.0,0001.15,0000.03,0000.00
2022-01-12 18:06:00,,0832.0,5.00,0.00,25.1,24.4,00.0,34.0,26.9,11.4,0000.0,0001.26,0000.04,0000.00
2022-01-12 18:07:00,,0832.0,5.00,0.00,25.1,24.4,00.0,34.0,26.9,11.2,0000.0,0001.30,0000.05,0000.00
2022-01-12 18:08:00,,0832.0,5.01,0.00,25.1,24.4,00.0,34.0,26.9,11.1,0000.0,0001.32,0000.05,0000.00
2022-01-12 18:09:00,,0832.0,4.98,0.00,25.1,24.4,00.0,34.0,27.0,11.3,0000.0,0001.35,0000.06,0000.00
2022-01-12 18:10:00,,0832.0,5.01,0.00,25.1,24.4,00.0,34.0,27.0,11.3,0000.0,0001.35,0000.06,0000.00
2022-01-12 18:11:00,,0831.9,5.00,0.00,25.1,24.4,00.0,34.1,27.0,11.4,0000.0,0001.62,0000.06,0000.00
2022-01-12 18:12:00,,0831.9,4.99,0.00,25.2,24.5,00.0,34.1,27.0,11.5,0000.0,0002.87,0000.06,0000.00
2022-01-12 18:13:00,,0831.8,5.01,0.00,25.2,24.5,00.0,34.1,27.0,11.4,0000.0,0002.49,0000.06,0000.00
2022-01-12 18:14:00,,0831.8,4.99,0.00,25.2,24.5,00.0,34.1,27.0,11.0,0000.0,0002.51,0000.07,0000.00
2022-01-12 18:15:00,,0831.7,5.01,0.00,25.2,24.5,00.0,34.1,27.0,10.4,0000.0,0002.41,0000.07,0000.00
2022-01-12 18:16:00,,0831.7,4.99,0.00,25.2,24.5,00.0,34.1,27.0,10.0,0000.0,0002.24,0000.07,0000.00
2022-01-12 18:29:00,,0831.6,4.99,0.00,25.3,24.7,00.0,34.3,27.2,09.8,0000.0,0008.29,0000.61,0000.08
2022-01-12 18:30:00,,0831.5,4.99,0.00,25.4,24.8,00.0,34.3,27.2,09.6,0000.0,0009.25,0000.73,0000.11
2022-01-12 18:31:00,,0831.5,5.00,0.00,25.4,24.8,00.0,34.3,27.2,09.4,0000.0,0009.35,0000.75,0000.11
2022-01-12 18:32:00,,0831.6,5.00,0.00,25.4,24.8,00.0,34.3,27.2,09.7,0000.0,0009.95,0000.75,0000.11
2022-01-12 18:33:00,,0831.6,4.99,0.00,25.4,24.8,00.0,34.3,27.2,10.0,0000.0,0010.01,0000.75,0000.11
2022-01-12 18:34:00,,0831.5,5.01,0.00,25.4,24.8,00.0,34.3,27.3,10.2,0000.0,0009.82,0000.74,0000.11
2022-01-12 18:35:00,,0831.5,4.99,0.00,25.4,24.8,00.0,34.3,27.3,10.4,0000.0,0009.54,0000.73,0000.11
2022-01-12 18:36:00,,0831.4,5.01,0.00,25.4,24.8,00.0,34.3,27.3,10.5,0000.0,0009.89,0000.73,0000.11
2022-01-12 18:37:00,,0831.4,4.99,0.00,25.4,24.9,00.0,34.3,27.3,10.5,0000.0,0010.32,0000.73,0000.11
2022-01-12 18:38:00,,0831.4,5.00,0.00,25.5,24.9,00.0,34.3,27.3,10.9,0000.0,0009.90,0000.73,0000.11
2022-01-12 18:39:00,,0831.3,5.00,0.00,25.5,24.9,00.0,34.4,27.3,11.2,0000.0,0009.69,0000.73,0000.11
2022-01-12 18:40:00,,0831.2,5.00,0.00,25.5,24.9,00.0,34.4,27.3,10.9,0000.0,0005.16,0000.11,0000.02
2022-01-12 18:41:00,,0831.2,5.00,0.00,25.5,24.9,00.0,34.4,27.3,10.7,0000.0,0004.61,0000.04,0000.01
2022-01-12 18:42:00,,0831.2,5.01,0.00,25.5,24.9,00.0,34.4,27.4,10.8,0000.0,0004.84,0000.04,0000.01
2022-01-12 18:43:00,,0831.1,5.00,0.00,25.5,24.9,00.0,34.4,27.4,10.8,0000.0,0003.71,0000.04,0000.01
2022-01-12 18:44:00,,0831.1,4.99,0.00,25.5,24.9,00.0,34.4,27.4,10.6,0000.0,0003.50,0000.04,0000.01
2022-01-12 18:45:00,,0831.2,5.00,0.00,25.5,24.9,00.0,34.4,27.4,10.8,0000.0,0002.58,0000.04,0000.01
2022-01-12 18:46:00,,0831.2,4.99,0.00,25.5,24.9,00.0,34.4,27.4,10.9,0000.0,0002.60,0000.04,0000.01
2022-01-12 18:47:00,,0831.2,5.01,0.00,25.6,24.9,00.0,34.4,27.4,11.0,0000.0,0001.99,0000.05,0000.00
2022-01-12 18:48:00,,0831.1,4.99,0.00,25.6,25.0,00.0,34.4,27.4,10.5,0000.0,0001.16,0000.05,0000.00
2022-01-12 18:49:00,,0831.2,5.00,0.00,25.6,25.0,00.0,34.5,27.4,10.3,0000.0,0001.05,0000.04,0000.01
2022-01-12 18:50:00,,0831.2,5.01,0.00,25.6,25.0,00.0,34.5,27.4,09.8,0000.0,0000.99,0000.05,0000.01
2022-01-12 18:51:00,,0831.2,4.99,0.00,25.6,25.0,00.0,34.5,27.5,10.1,0000.0,0000.54,0000.05,0000.01
2022-01-12 18:52:00,,0831.2,4.99,0.00,25.6,25.0,00.0,34.5,27.5,10.7,0000.0,0000.54,0000.05,0000.01
2022-01-12 18:53:00,,0831.2,5.02,0.00,25.6,25.0,00.0,34.5,27.5,10.9,0000.0,0000.28,0000.04,0000.00
2022-01-12 18:54:00,,0831.2,4.99,0.00,25.6,25.0,00.0,34.5,27.5,11.0,0000.0,0000.25,0000.04,0000.00
2022-01-12 18:55:00,,0831.2,5.00,0.00,25.6,25.0,00.0,34.5,27.5,11.1,0000.0,0001.52,0000.04,0000.00
2022-01-12 18:56:00,,0831.2,5.00,0.00,25.6,25.0,00.0,34.5,27.5,10.9,0000.0,0001.53,0000.04,0000.00
2022-01-12 18:57:00,,0831.2,5.01,0.00,25.6,25.0,00.0,34.6,27.5,10.9,0000.0,0001.64,0000.06,0000.01
2022-01-12 18:58:00,,0831.1,4.99,0.00,25.6,24.9,00.0,34.6,27.5,10.6,0000.0,0001.57,0000.05,0000.01
2022-01-12 18:59:00,,0831.1,5.00,0.00,25.6,24.9,00.0,34.6,27.5,10.2,0000.0,0001.67,0000.07,0000.01
